Location: Macuia
(16.5139°S, 37.2539°E)
Time: 11:46:47
(UTC+00:00)

Daily predictions for brighter satellites

Satellite Brightness Start Highest point End
(mag) Time Altitude Azimuth Time Altitude Azimuth Time Altitude Azimuth
H-2A R/B 3.9 15:25:21 10° SW 15:28:51 26° S 15:39:05 10° ESE
GPS 2-12 Rocket1 3.4 15:35:03 10° W 15:39:27 54° S 15:43:48 10° ESE
Cosmos 1452 Rocket 3.5 15:35:56 10° N 15:41:10 81° ENE 15:46:28 10° SSE
CORIOLIS 4.2 15:36:01 10° SSE 15:41:26 69° ENE 15:46:49 10° N
Abrixas rocket 3.5 15:39:15 10° N 15:41:29 20° NE 15:43:45 10° ESE
NOSS 3-2 (A) 3.1 15:36:54 10° SSW 15:42:36 84° ESE 15:47:58 10° NNE
SL-24 R/B 4.4 15:40:34 10° NNE 15:44:35 49° ESE 15:49:13 10° S
Cosmos 1939 Rocket 4.2 15:43:30 10° SE 15:46:17 19° E 15:49:01 10° NE
CZ-2C R/B 4.1 15:43:38 10° ENE 15:46:51 16° ESE 15:50:08 10° SE
Hubble Space Telescope 2.4 15:44:19 10° SW 15:47:34 21° SSE 15:50:48 10° ESE
Cosmos 2084 Rocket 4.0 15:44:22 10° S 15:48:08 33° ESE 15:51:51 10° NE
Cosmos 2369 Rocket 2.2 15:44:16 10° NNW 15:49:56 78° ENE 15:55:41 10° SSE
Delta 128 4.0 15:46:17 10° WNW 15:51:12 81° NNE 15:56:54 10° ESE
NOSS 3-2 (C) 3.3 15:46:11 10° SSW 15:51:45 51° ESE 15:56:58 10° NE
Cosmos 614 Rocket 4.0 15:46:47 10° SSW 15:51:54 89° WNW 15:57:00 10° NNE
Helios 1A Rocket 3.5 15:48:39 10° SSE 15:52:27 37° E 15:56:12 10° NNE
Cosmos 1833 Rocket 3.2 15:48:12 10° SSW 15:53:47 67° WNW 15:59:18 10° N
YAOGAN 1 4.3 15:51:50 10° ESE 15:54:05 14° E 15:56:19 10° NE
IUS-1 SRM-2 2.7 15:54:27 10° NNW 15:56:13 26° NNE 15:58:33 12° E
Nadezhda 3 Rocket 4.3 15:51:06 10° NNE 15:56:53 45° E 16:02:45 10° SSE
Cosmos 1943 Rocket 3.4 15:57:41 10° NW 16:02:54 44° WSW 16:08:09 10° S
Cosmos 1408 Rocket 4.4 15:59:09 10° SSW 16:03:33 56° W 16:07:54 10° N
Cosmos 2263 4.2 15:57:54 10° N 16:03:35 71° ENE 16:09:16 10° SSE
FengYun 1-2 T 4.2 16:00:27 10° SSE 16:06:03 79° ENE 16:11:32 10° N
Sich 1 4.5 16:04:30 10° SE 16:07:24 17° E 16:10:19 10° ENE
MOS 1 Rocket 3.5 16:03:21 10° NNE 16:08:08 49° ESE 16:12:40 10° S
Cosmos 1862 4.1 16:05:26 10° SSE 16:09:01 30° E 16:12:33 10° NE
OAO 3 Rocket 3.1 16:04:32 10° SW 16:09:15 78° SSE 16:13:48 11° ENE
Delta 2 Rocket 4.2 16:05:50 10° SW 16:10:37 41° SSE 16:13:31 19° E
Cosmos 1743 Rocket 3.5 16:07:02 10° S 16:11:27 78° E 16:15:50 10° N
Cosmos 676 Rocket 4.2 16:13:45 10° S 16:18:49 47° ESE 16:23:52 10° NNE
Stardust Del rocket 3.8 16:18:42 10° SW 16:20:36 20° S 16:20:51 20° SSE
ATLAS 3B R/B 3.5 16:15:10 10° S 16:20:59 27° ESE 16:24:20 19° E
Milstar 3 3.7 16:15:51 10° NW 16:23:17 62° NNE 16:31:57 21° ESE
IRS-1C Rocket 4.2 16:18:08 10° S 16:23:27 82° WSW 16:28:43 10° NNW
FALCON 9 R/B 2.5 16:23:03 10° N 16:24:14 14° NNE 16:24:14 14° NNE
Cosmos 1821 Rocket 4.4 16:19:02 10° SSE 16:24:34 35° E 16:30:02 10° NNE
Cosmos 1500 Rocket 4.0 16:24:41 10° SSW 16:29:00 61° W 16:33:15 10° N
CZ-2D R/B 3.1 16:25:54 10° SSE 16:29:42 63° E 16:33:27 10° N
Cosmos 2366 rocket 4.5 16:23:53 10° SSW 16:30:12 66° W 16:36:24 10° N
BREEZE-M DEB (TANK) 2.0 16:28:42 10° NW 16:31:15 70° SW 16:31:50 45° SSE
Cosmos 1606 2.5 16:31:37 10° N 16:35:23 86° E 16:39:10 10° S
Cosmos 1441 Rocket 3.1 16:31:38 10° S 16:35:35 80° E 16:39:26 10° N
Atlas Centaur 2 2.0 16:32:42 10° SW 16:36:05 30° SSE 16:36:05 30° SSE
Cosmos 1110 Rocket 4.2 16:33:30 10° NNW 16:38:43 70° WSW 16:43:57 10° S
Mugunghwa Rocket 4.2 16:32:55 10° WNW 16:40:08 75° SSW 16:43:31 31° ESE
CSL-04 Rocket 4.1 16:41:35 36° ESE 16:42:26 39° E 16:47:22 10° NNE
Okean-O 2.9 16:40:45 10° S 16:45:11 70° WSW 16:49:35 10° NNW
CZ-4 R/B 1.2 16:43:34 20° S 16:46:14 82° W 16:50:05 10° NNW
Cosmos 1954 Rocket 4.1 16:43:15 10° SSW 16:48:33 81° WNW 16:53:50 10° N
Iridium 2 3.7 16:46:30 10° N 16:50:14 78° W 16:52:09 28° S
Cosmos 2239 Rocket 4.5 16:45:03 10° S 16:51:06 54° E 16:57:04 10° NNE
CENTAUR R/B 3.3 16:47:43 10° SW 16:52:33 40° WNW 16:57:26 10° N
Cosmos 292 Rocket 3.7 16:48:09 10° N 16:52:49 57° ENE 16:52:50 57° E
Cosmos 1805 Rocket 3.7 16:48:31 10° S 16:52:55 74° W 16:57:18 10° N
Cosmos 1302 Rocket 3.9 16:48:31 10° N 16:53:41 64° ENE 16:54:52 49° SE
Cosmos 2082 Rocket 4.3 16:52:36 10° SW 16:57:23 28° WNW 17:02:10 10° NNW
ATLAS 2AS CENTAUR RB 3.1 17:03:09 10° WNW 17:04:48 18° NW 17:04:48 18° NW
DMSP B5D2-2 4.3 17:00:20 10° N 17:05:34 71° WNW 17:10:53 10° SSW
Cosmos 1328 Rocket 4.1 17:03:02 10° NNW 17:07:24 59° W 17:09:22 31° SSW
SWIFT 3.3 17:05:11 10° WSW 17:08:24 40° SW 17:08:24 40° SW
ISS -1.2 17:12:58 10° NW 17:14:06 20° NW 17:14:06 20° NW
GPS 2-14 Rocket1 4.3 17:15:03 10° W 17:17:36 32° WSW 17:17:36 32° WSW
GPS 2-12 Rocket1 4.3 17:18:40 10° WSW 17:21:23 35° WSW 17:21:23 35° WSW
CSL-04 Debris 4.5 17:24:35 50° SSW 17:25:48 64° WSW 17:31:13 10° NNW
CZ-2C R/B 4.0 17:21:47 10° NNW 17:26:42 38° W 17:31:47 10° SSW
Hubble Space Telescope 3.0 17:24:58 10° WSW 17:26:24 21° SW 17:26:24 21° SW
CZ-2C R/B 4.4 17:44:28 33° NW 17:44:28 33° NW 17:47:26 10° NNW
H-2A R/B 3.8 17:46:29 25° NNW 17:46:29 25° NNW 17:48:39 10° NNW
Milstar 3 Cent rocket 4.3 17:44:47 10° SW 17:45:54 15° SW 17:45:54 15° SW
ATLAS 3B R/B 3.9 18:05:22 10° SW 18:11:32 35° WNW 18:11:47 35° WNW
CZ-3 R/B 4.5 22:25:48 10° NW 23:43:51 75° ESE 23:56:44 10° ESE
